OE3MNS-12 Weather Reports


time (UTC)temp
F
wind
direction
speed
knots
gust
knots
rain 1hr
in
rain 24hr
in
rain mn
in
humidity
%
barometer
mb
20260507185517 62 227 2.6 7.0 0.00 0.00 0.00 53 1014.8
20260507184520 62 227 3.5 7.8 0.00 0.00 0.00 53 1014.6
20260507183520 63 235 4.3 9.6 0.00 0.00 0.00 52 1014.5
20260507182519 63 233 3.5 9.6 0.00 0.00 0.00 52 1014.5
20260507181521 63 224 2.6 6.1 0.00 0.00 0.00 51 1014.2
20260507180521 63 226 3.5 7.8 0.00 0.00 0.00 50 1014.2
20260507175519 64 226 3.5 7.8 0.00 0.00 0.00 50 1014.1
20260507174542 64 211 3.5 7.8 0.00 0.00 0.00 50 1014.0
20260507173521 64 220 3.5 7.0 0.00 0.00 0.00 49 1013.9
20260507172518 65 218 3.5 11.3 0.00 0.00 0.00 48 1013.8
20260507171519 65 220 3.5 8.7 0.00 0.00 0.00 47 1013.7
20260507170518 65 215 2.6 7.0 0.00 0.00 0.00 47 1013.5
20260507165518 65 228 2.6 7.0 0.00 0.00 0.00 46 1013.5
20260507164522 65 220 3.5 7.8 0.00 0.00 0.00 46 1013.4
20260507163537 65 231 4.3 13.0 0.00 0.00 0.00 45 1013.3
20260507162540 65 235 4.3 11.3 0.00 0.00 0.00 47 1013.2
20260507161522 65 230 3.5 11.3 0.00 0.00 0.00 50 1013.1
20260507160517 65 248 4.3 13.0 0.00 0.00 0.00 48 1013.1
20260507155540 66 238 2.6 6.1 0.00 0.00 0.00 50 1013.1
20260507154523 67 193 1.7 6.1 0.00 0.00 0.00 46 1013.1
20260507153520 68 319 2.6 7.0 0.00 0.00 0.00 41 1013.1
20260507152520 68 233 2.6 6.1 0.00 0.00 0.00 40 1012.8
20260507151517 69 215 3.5 7.8 0.00 0.00 0.00 40 1012.8
20260507150520 69 209 3.5 7.8 0.00 0.00 0.00 39 1012.8
20260507145520 69 218 3.5 7.0 0.00 0.00 0.00 40 1012.7
20260507144517 70 213 2.6 7.8 0.00 0.00 0.00 39 1012.7
20260507143539 70 205 5.2 13.0 0.00 0.00 0.00 37 1012.6
20260507142522 71 202 4.3 11.3 0.00 0.00 0.00 36 1012.7
20260507141559 71 228 2.6 6.1 0.00 0.00 0.00 37 1012.5
20260507140521 72 259 2.6 5.2 0.00 0.00 0.00 37 1012.6
20260507135521 72 243 3.5 8.7 0.00 0.00 0.00 37 1012.5
20260507134539 72 223 2.6 7.0 0.00 0.00 0.00 36 1012.6
20260507133520 71 199 3.5 7.8 0.00 0.00 0.00 36 1012.7
20260507132523 71 216 1.7 3.5 0.00 0.00 0.00 36 1012.8
20260507131518 71 201 4.3 7.8 0.00 0.00 0.00 35 1012.9
20260507130543 73 238 4.3 7.8 0.00 0.00 0.00 34 1012.9
20260507125521 73 186 4.3 9.6 0.00 0.00 0.00 34 1013.0
20260507124520 72 193 3.5 7.8 0.00 0.00 0.00 37 1012.9
20260507123520 72 233 4.3 11.3 0.00 0.00 0.00 37 1013.2
20260507122518 72 229 3.5 6.1 0.00 0.00 0.00 36 1013.2
20260507121518 71 245 4.3 9.6 0.00 0.00 0.00 37 1013.2
20260507120540 71 239 3.5 9.6 0.00 0.00 0.00 37 1013.3
20260507115518 71 244 4.3 13.0 0.00 0.00 0.00 37 1013.4
20260507114519 70 250 5.2 11.3 0.00 0.00 0.00 40 1013.4
20260507113603 68 206 2.6 8.7 0.00 0.00 0.00 42 1013.6
20260507112517 67 252 6.1 9.6 0.00 0.00 0.00 43 1013.7
20260507111519 66 240 3.5 8.7 0.00 0.00 0.00 44 1013.9
20260507110523 66 248 5.2 9.6 0.00 0.00 0.00 44 1013.9
20260507105518 66 250 5.2 12.2 0.00 0.00 0.00 45 1014.0
20260507104520 66 251 5.2 12.2 0.00 0.00 0.00 46 1014.0
20260507103538 66 235 4.3 8.7 0.00 0.00 0.00 46 1014.2
20260507102520 66 249 4.3 11.3 0.00 0.00 0.00 46 1014.3
20260507101520 65 253 6.1 9.6 0.00 0.00 0.00 49 1014.3
20260507100519 65 240 3.5 8.7 0.00 0.00 0.00 49 1014.4
20260507095518 65 249 6.1 13.0 0.00 0.00 0.00 49 1014.3
20260507094541 65 244 7.0 18.2 0.00 0.00 0.00 48 1014.2
20260507093519 65 243 5.2 12.2 0.00 0.00 0.00 48 1014.2
20260507092519 65 239 4.3 11.3 0.00 0.00 0.00 47 1014.2
20260507091521 65 253 6.1 12.2 0.00 0.00 0.00 49 1014.1
20260507090522 64 244 6.1 14.8 0.00 0.00 0.00 49 1014.1
20260507085541 63 251 7.0 13.9 0.00 0.00 0.00 51 1013.9
20260507084521 62 241 7.8 19.1 0.00 0.00 0.00 51 1013.9
20260507083517 63 256 7.0 15.6 0.00 0.00 0.00 52 1013.9
20260507082521 62 237 7.8 15.6 0.00 0.00 0.00 51 1013.6
20260507081516 62 241 7.0 13.9 0.00 0.00 0.00 53 1013.6
20260507080520 61 243 8.7 21.7 0.00 0.00 0.00 54 1013.6
20260507075520 61 236 8.7 20.0 0.00 0.00 0.00 54 1013.7
20260507074537 61 251 10.4 19.1 0.00 0.00 0.00 55 1013.6
20260507073519 61 248 11.3 19.1 0.00 0.00 0.00 55 1013.5
20260507072522 61 249 9.6 20.0 0.00 0.00 0.00 55 1013.4
20260507071537 60 255 7.8 18.2 0.00 0.00 0.00 57 1013.1
20260507070519 61 246 7.0 14.8 0.00 0.00 0.00 56 1013.1
20260507065520 60 252 10.4 18.2 0.00 0.00 0.00 57 1013.2
20260507064520 60 252 10.4 18.2 0.00 0.00 0.00 59 1013.2
20260507063539 59 254 8.7 19.1 0.00 0.00 0.00 61 1013.2
20260507062520 58 243 6.1 13.9 0.00 0.00 0.00 63 1013.2
20260507061542 57 252 7.0 13.0 0.00 0.00 0.00 63 1013.1
20260507060519 57 250 7.8 13.9 0.00 0.00 0.00 64 1013.0
20260507055539 58 251 7.0 13.0 0.00 0.00 0.00 64 1012.9
20260507054520 58 250 9.6 13.9 0.00 0.00 0.00 63 1013.0
20260507053539 57 247 5.2 11.3 0.00 0.00 0.00 64 1012.9
20260507052519 57 246 3.5 7.0 0.00 0.00 0.00 65 1012.9
20260507051523 57 249 5.2 11.3 0.00 0.00 0.00 65 1012.7
20260507050519 57 240 6.1 9.6 0.00 0.00 0.00 66 1012.7
20260507045520 56 247 4.3 9.6 0.00 0.00 0.00 66 1012.5
20260507044518 56 238 3.5 7.8 0.00 0.00 0.00 66 1012.5
20260507043519 56 248 5.2 11.3 0.00 0.00 0.00 66 1012.3
20260507042520 56 245 4.3 8.7 0.00 0.00 0.00 66 1012.2
20260507041519 56 246 5.2 9.6 0.00 0.00 0.00 65 1012.0
20260507040521 56 246 4.3 9.6 0.00 0.00 0.00 65 1012.0
20260507035521 56 239 4.3 7.8 0.00 0.00 0.00 65 1011.8
20260507034519 57 248 6.1 13.9 0.00 0.00 0.00 64 1011.8
20260507033521 57 252 6.1 11.3 0.00 0.00 0.00 64 1011.6
20260507032521 57 253 8.7 13.9 0.00 0.00 0.00 64 1011.5
20260507031518 57 258 8.7 15.6 0.00 0.00 0.00 65 1011.5
20260507030521 57 249 7.0 13.0 0.00 0.00 0.00 64 1011.3
20260507030022 57 241 7.0 14.8 0.00 0.00 0.00 64 1011.3
20260507025018 58 242 6.1 13.9 0.00 0.00 0.00 64 1011.2
20260507024019 58 230 5.2 9.6 0.00 0.00 0.00 63 1011.0
20260507023020 58 230 6.1 19.1 0.00 0.00 0.00 63 1011.1
20260507022017 58 241 4.3 9.6 0.00 0.00 0.00 64 1011.0
20260507021039 58 232 6.1 15.6 0.00 0.00 0.00 64 1010.9
20260507020106 58 239 5.2 14.8 0.00 0.00 0.00 65 1010.8
20260507015017 58 220 4.3 11.3 0.00 0.00 0.00 65 1010.8
20260507014019 58 231 5.2 12.2 0.00 0.00 0.00 65 1010.9
20260507013023 58 216 3.5 7.8 0.00 0.00 0.00 66 1010.7
20260507012017 58 213 5.2 12.2 0.00 0.00 0.00 67 1010.5
20260507011020 59 222 4.3 12.2 0.00 0.00 0.00 67 1010.4
20260507010017 59 235 4.3 11.3 0.00 0.00 0.00 67 1010.2
20260507005019 59 228 4.3 9.6 0.00 0.00 0.00 67 1010.3
20260507004021 59 241 7.0 13.0 0.00 0.00 0.00 66 1010.2
20260507003022 59 248 6.1 13.0 0.00 0.00 0.00 66 1010.3
20260507002020 60 233 4.3 9.6 0.00 0.00 0.00 66 1010.2
20260507001020 60 223 6.1 15.6 0.00 0.00 0.00 66 1009.9
20260507000016 60 242 6.1 14.8 0.00 0.00 0.00 67 1009.8
20260506235018 60 244 6.1 13.9 0.00 0.00 0.00 66 1009.6
20260506234042 60 237 6.1 13.9 0.00 0.00 0.00 66 1009.5
20260506233016 61 233 5.2 11.3 0.00 0.00 0.00 66 1009.6
20260506232018 61 240 4.3 9.6 0.00 0.00 0.00 67 1009.5
20260506231021 61 242 6.1 12.2 0.00 0.00 0.00 67 1009.1
20260506230017 61 248 9.6 20.9 0.00 0.00 0.00 67 1009.1
20260506225019 62 236 9.6 18.2 0.00 0.00 0.00 67 1008.7
20260506224021 62 245 12.2 26.1 0.00 0.00 0.00 67 1008.6
20260506223018 62 248 7.8 15.6 0.00 0.00 0.00 64 1008.7
20260506222021 62 256 8.7 16.5 0.00 0.00 0.00 62 1008.3
20260506221016 63 248 11.3 19.1 0.00 0.00 0.00 62 1007.9
20260506220020 63 243 7.8 20.0 0.00 0.00 0.00 60 1007.7
20260506215021 64 224 5.2 11.3 0.00 0.00 0.00 58 1007.4
20260506214017 64 223 5.2 16.5 0.00 0.00 0.00 57 1007.2
20260506213020 65 226 4.3 9.6 0.00 0.00 0.00 55 1007.0
20260506212020 66 227 5.2 13.0 0.00 0.00 0.00 51 1006.8
20260506211018 65 228 3.5 9.6 0.00 0.00 0.00 52 1006.5
20260506210019 66 205 2.6 6.1 0.00 0.00 0.00 52 1006.2
20260506205020 66 197 2.6 7.8 0.00 0.00 0.00 52 1006.1
20260506204018 66 194 1.7 3.5 0.00 0.00 0.00 51 1005.9
20260506203019 66 195 0.9 2.6 0.00 0.00 0.00 51 1005.8
20260506202043 66 194 2.6 6.1 0.00 0.00 0.00 51 1005.6
20260506201019 66 200 1.7 3.5 0.00 0.00 0.00 50 1005.5
20260506200019 67 197 1.7 3.5 0.00 0.00 0.00 51 1005.4
20260506195016 67 171 0.9 5.2 0.00 0.00 0.00 50 1005.3
20260506194018 68 179 1.7 3.5 0.00 0.00 0.00 49 1005.2
20260506193040 68 196 1.7 3.5 0.00 0.00 0.00 48 1005.0
20260506192057 68 160 3.5 7.8 0.00 0.00 0.00 47 1004.8
20260506191020 69 165 1.7 3.5 0.00 0.00 0.00 46 1004.7
20260506190021 70 144 2.6 7.8 0.00 0.00 0.00 45 1004.5